This is the latest recevied weather packets stored in our database for station/object ac2ev. If no packets are shown the sender has not sent any weather packets the latest 10 day(s).
| Time | Temp. | Humidity | Pressure | Rain* | Wind** | Luminosity | Snow |
|---|---|---|---|---|---|---|---|
| 1777329361 | 15.56° C | 54% | 1018.6 hPa | 0 mm | - | - | - |
| 1777329061 | 15.56° C | 54% | 1018.7 hPa | 0 mm | - | - | - |
| 1777328761 | 15.56° C | 55% | 1018.6 hPa | 0 mm | - | - | - |
| 1777328461 | 15.56° C | 54% | 1018.7 hPa | 0 mm | - | - | - |
| 1777328161 | 15.56° C | 55% | 1018.7 hPa | 0 mm | - | - | - |
| 1777327861 | 15.56° C | 55% | 1018.7 hPa | 0 mm | - | - | - |
| 1777327561 | 15.56° C | 56% | 1018.9 hPa | 0 mm | - | - | - |
| 1777327261 | 15° C | 59% | 1018.9 hPa | 0 mm | - | - | - |
| 1777326962 | 15° C | 59% | 1018.8 hPa | 0 mm | - | - | - |
| 1777326659 | 14.44° C | 60% | 1018.7 hPa | 0 mm | - | - | - |
| 1777326359 | 14.44° C | 60% | 1018.8 hPa | 0 mm | - | - | - |
| 1777326059 | 14.44° C | 60% | 1018.8 hPa | 0 mm | - | - | - |
| 1777325759 | 14.44° C | 60% | 1018.9 hPa | 0 mm | - | - | - |
| 1777325459 | 14.44° C | 59% | 1018.9 hPa | 0 mm | - | - | - |
| 1777325159 | 14.44° C | 60% | 1019 hPa | 0 mm | - | - | - |
| 1777324859 | 13.89° C | 60% | 1019.1 hPa | 0 mm | - | - | - |
| 1777324559 | 13.89° C | 60% | 1019.2 hPa | 0 mm | - | - | - |
| 1777324259 | 14.44° C | 61% | 1019.2 hPa | 0 mm | - | - | - |
| 1777323955 | 14.44° C | 60% | 1019.3 hPa | 0 mm | - | - | - |
| 1777323655 | 14.44° C | 62% | 1019.2 hPa | 0 mm | - | - | - |
| 1777323353 | 13.89° C | 61% | 1019.2 hPa | 0 mm | - | - | - |
| 1777323053 | 13.89° C | 62% | 1019.3 hPa | 0 mm | - | - | - |
| 1777322750 | 13.89° C | 60% | 1019.4 hPa | 0 mm | - | - | - |
| 1777322450 | 13.89° C | 61% | 1019.4 hPa | 0 mm | - | - | - |
| 1777322148 | 13.89° C | 61% | 1019.5 hPa | 0 mm | - | - | - |
* Rain latest hour (hover to see other rain measurements)
** Current wind speed in m/s (hover to see current wind gust speed)